| time (UTC) | temp F | wind direction | speed knots | gust knots | rain 1hr in | rain 24hr in | rain mn in | humidity % | barometer mb |
| 20260510033635 | 78 | 138 | 3.5 | 5.2 | 0.00 | 0.01 | 0.01 | 79 | 1011.5 |
| 20260510033133 | 78 | 167 | 3.5 | 5.2 | 0.00 | 0.01 | 0.01 | 79 | 1011.5 |
| 20260510032629 | 78 | 186 | 2.6 | 2.6 | 0.00 | 0.01 | 0.01 | 79 | 1011.3 |
| 20260510032124 | 79 | 242 | 1.7 | 1.7 | 0.00 | 0.01 | 0.01 | 78 | 1011.2 |
| 20260510031619 | 79 | 189 | 2.6 | 4.3 | 0.00 | 0.01 | 0.01 | 78 | 1011.5 |
| 20260510031116 | 79 | 139 | 4.3 | 5.2 | 0.00 | 0.01 | 0.01 | 77 | 1011.1 |
| 20260510030611 | 79 | 193 | 3.5 | 5.2 | 0.00 | 0.01 | 0.01 | 77 | 1011.2 |
| 20260510030109 | 79 | 181 | 3.5 | 5.2 | 0.00 | 0.01 | 0.01 | 76 | 1011.1 |
| 20260510025606 | 80 | 172 | 4.3 | 6.1 | 0.00 | 0.01 | 0.01 | 76 | 1011.2 |
| 20260510025103 | 80 | 201 | 2.6 | 2.6 | 0.00 | 0.01 | 0.01 | 75 | 1011.1 |
| 20260510024600 | 80 | 179 | 4.3 | 5.2 | 0.00 | 0.01 | 0.01 | 73 | 1010.9 |
| 20260510024056 | 80 | 164 | 4.3 | 5.2 | 0.00 | 0.01 | 0.01 | 72 | 1010.8 |
| 20260510023552 | 80 | 212 | 2.6 | 2.6 | 0.00 | 0.01 | 0.01 | 71 | 1011.0 |
| 20260510023050 | 80 | 199 | 3.5 | 4.3 | 0.00 | 0.01 | 0.01 | 71 | 1010.7 |
| 20260510022549 | 81 | 223 | 0.9 | 1.7 | 0.00 | 0.01 | 0.01 | 69 | 1010.6 |
| 20260510022043 | 81 | 193 | 3.5 | 4.3 | 0.00 | 0.01 | 0.01 | 69 | 1010.5 |
| 20260510021535 | 80 | 221 | 1.7 | 2.6 | 0.00 | 0.01 | 0.01 | 69 | 1010.3 |
| 20260510021032 | 81 | 241 | 1.7 | 1.7 | 0.00 | 0.01 | 0.01 | 69 | 1010.4 |
| 20260510020526 | 81 | 232 | 1.7 | 2.6 | 0.00 | 0.01 | 0.01 | 69 | 1010.3 |
| 20260510020022 | 81 | 269 | 0.0 | 0.9 | 0.00 | 0.01 | 0.01 | 69 | 1010.2 |
| 20260510015518 | 81 | 260 | 1.7 | 1.7 | 0.00 | 0.01 | 0.01 | 68 | 1010.0 |
| 20260510015014 | 81 | 169 | 1.7 | 1.7 | 0.00 | 0.01 | 0.01 | 68 | 1009.9 |
| 20260510014511 | 82 | 177 | 2.6 | 2.6 | 0.00 | 0.01 | 0.01 | 67 | 1010.1 |
| 20260510014008 | 82 | 193 | 3.5 | 4.3 | 0.00 | 0.01 | 0.01 | 66 | 1009.9 |
| 20260510013502 | 82 | 185 | 2.6 | 4.3 | 0.00 | 0.01 | 0.01 | 66 | 1010.0 |
| 20260510012958 | 82 | 149 | 4.3 | 6.1 | 0.00 | 0.01 | 0.01 | 65 | 1009.9 |
| 20260510012453 | 83 | 116 | 4.3 | 5.2 | 0.00 | 0.01 | 0.01 | 64 | 1010.2 |
| 20260510011949 | 83 | 122 | 2.6 | 4.3 | 0.00 | 0.01 | 0.01 | 63 | 1009.9 |
| 20260510011444 | 83 | 164 | 1.7 | 2.6 | 0.00 | 0.01 | 0.01 | 62 | 1009.6 |
| 20260510010940 | 83 | 106 | 3.5 | 4.3 | 0.00 | 0.01 | 0.01 | 61 | 1009.9 |
| 20260510010437 | 84 | 132 | 6.1 | 7.0 | 0.00 | 0.01 | 0.01 | 60 | 1009.9 |
| 20260510005934 | 84 | 195 | 3.5 | 4.3 | 0.00 | 0.01 | 0.01 | 59 | 1009.6 |
| 20260510005430 | 84 | 178 | 2.6 | 4.3 | 0.00 | 0.01 | 0.01 | 58 | 1009.6 |
| 20260510004927 | 84 | 189 | 3.5 | 4.3 | 0.00 | 0.01 | 0.01 | 58 | 1009.8 |
| 20260510004425 | 85 | 181 | 4.3 | 6.1 | 0.00 | 0.01 | 0.01 | 57 | 1009.6 |
| 20260510003923 | 85 | 161 | 2.6 | 4.3 | 0.00 | 0.01 | 0.01 | 57 | 1009.8 |
| 20260510003419 | 85 | 200 | 2.6 | 2.6 | 0.00 | 0.01 | 0.01 | 57 | 1009.2 |
| 20260510002918 | 85 | 250 | 1.7 | 2.6 | 0.00 | 0.01 | 0.01 | 56 | 1009.3 |
| 20260510002416 | 86 | 176 | 3.5 | 4.3 | 0.00 | 0.01 | 0.01 | 55 | 1009.4 |
| 20260510001912 | 86 | 111 | 3.5 | 4.3 | 0.00 | 0.01 | 0.01 | 55 | 1009.4 |
| 20260510001410 | 86 | 134 | 4.3 | 5.2 | 0.00 | 0.01 | 0.01 | 55 | 1009.3 |
| 20260510000907 | 86 | 96 | 3.5 | 5.2 | 0.00 | 0.01 | 0.01 | 54 | 1009.3 |
| 20260510000404 | 86 | 134 | 5.2 | 7.0 | 0.00 | 0.01 | 0.01 | 53 | 1009.4 |
| 20260509235900 | 86 | 151 | 4.3 | 6.1 | 0.00 | 0.01 | 0.01 | 52 | 1009.3 |
| 20260509235357 | 87 | 154 | 2.6 | 2.6 | 0.00 | 0.01 | 0.01 | 52 | 1009.1 |
| 20260509234852 | 87 | 186 | 3.5 | 5.2 | 0.00 | 0.01 | 0.01 | 51 | 1009.2 |
| 20260509234350 | 87 | 190 | 2.6 | 5.2 | 0.00 | 0.01 | 0.01 | 51 | 1009.2 |
| 20260509233848 | 87 | 149 | 5.2 | 7.0 | 0.00 | 0.01 | 0.01 | 51 | 1009.0 |
| 20260509233345 | 87 | 136 | 4.3 | 5.2 | 0.00 | 0.01 | 0.01 | 50 | 1009.2 |
| 20260509232841 | 88 | 122 | 2.6 | 4.3 | 0.00 | 0.01 | 0.01 | 49 | 1009.3 |
| 20260509232339 | 87 | 236 | 1.7 | 2.6 | 0.00 | 0.01 | 0.01 | 50 | 1009.2 |
| 20260509231834 | 87 | 71 | 4.3 | 6.1 | 0.00 | 0.01 | 0.01 | 49 | 1009.0 |
| 20260509231332 | 88 | 156 | 2.6 | 2.6 | 0.00 | 0.01 | 0.01 | 48 | 1008.9 |
| 20260509230829 | 89 | 81 | 5.2 | 7.0 | 0.00 | 0.01 | 0.01 | 47 | 1008.9 |
| 20260509230326 | 89 | 104 | 3.5 | 5.2 | 0.00 | 0.01 | 0.01 | 47 | 1009.0 |
| 20260509225821 | 89 | 194 | 5.2 | 6.1 | 0.00 | 0.01 | 0.01 | 46 | 1008.9 |
| 20260509225319 | 89 | 306 | 1.7 | 2.6 | 0.00 | 0.01 | 0.01 | 47 | 1008.8 |
| 20260509224814 | 88 | 324 | 0.9 | 1.7 | 0.00 | 0.01 | 0.01 | 48 | 1009.1 |
| 20260509224311 | 89 | 194 | 4.3 | 4.3 | 0.00 | 0.01 | 0.01 | 47 | 1009.1 |
| 20260509223807 | 91 | 297 | 0.0 | 0.9 | 0.00 | 0.01 | 0.01 | 51 | 1009.2 |
| 20260509223305 | 92 | 312 | 1.7 | 2.6 | 0.00 | 0.01 | 0.01 | 47 | 1009.3 |
| 20260509222801 | 91 | 309 | 2.6 | 2.6 | 0.00 | 0.01 | 0.01 | 48 | 1008.9 |
| 20260509222257 | 89 | 311 | 0.9 | 0.9 | 0.00 | 0.01 | 0.01 | 51 | 1009.0 |
| 20260509221753 | 89 | 149 | 1.7 | 1.7 | 0.00 | 0.01 | 0.01 | 52 | 1009.0 |
| 20260509221250 | 91 | 113 | 2.6 | 2.6 | 0.00 | 0.01 | 0.01 | 50 | 1008.9 |
| 20260509220745 | 92 | 281 | 0.9 | 0.9 | 0.00 | 0.01 | 0.01 | 48 | 1009.1 |
| 20260509220242 | 91 | 329 | 0.0 | 0.9 | 0.00 | 0.01 | 0.01 | 49 | 1009.0 |
| 20260509215737 | 93 | 306 | 0.9 | 0.9 | 0.00 | 0.01 | 0.01 | 48 | 1009.0 |
| 20260509215234 | 92 | 6 | 2.6 | 2.6 | 0.00 | 0.01 | 0.01 | 49 | 1009.1 |
| 20260509214731 | 90 | 66 | 2.6 | 4.3 | 0.00 | 0.01 | 0.01 | 51 | 1009.0 |
| 20260509214228 | 90 | 267 | 1.7 | 1.7 | 0.00 | 0.01 | 0.01 | 51 | 1009.3 |
| 20260509213725 | 89 | 170 | 3.5 | 4.3 | 0.00 | 0.01 | 0.01 | 51 | 1009.3 |
| 20260509213221 | 89 | 252 | 3.5 | 4.3 | 0.00 | 0.01 | 0.01 | 52 | 1009.3 |
| 20260509212718 | 90 | 8 | 2.6 | 5.2 | 0.00 | 0.01 | 0.01 | 53 | 1009.3 |
| 20260509212215 | 90 | 292 | 0.9 | 0.9 | 0.00 | 0.01 | 0.01 | 52 | 1009.3 |
| 20260509211711 | 89 | 21 | 1.7 | 4.3 | 0.00 | 0.01 | 0.01 | 53 | 1009.4 |
| 20260509211207 | 88 | 120 | 2.6 | 4.3 | 0.00 | 0.01 | 0.01 | 53 | 1009.4 |
| 20260509210703 | 89 | 319 | 0.9 | 0.9 | 0.00 | 0.01 | 0.01 | 51 | 1009.6 |
| 20260509210156 | 88 | 55 | 4.3 | 6.1 | 0.00 | 0.01 | 0.01 | 51 | 1009.9 |
| 20260509205651 | 89 | 129 | 1.7 | 2.6 | 0.00 | 0.01 | 0.01 | 52 | 1009.8 |
| 20260509205150 | 89 | 103 | 4.3 | 6.1 | 0.00 | 0.01 | 0.01 | 52 | 1009.9 |
| 20260509204646 | 88 | 316 | 0.9 | 2.6 | 0.00 | 0.01 | 0.01 | 54 | 1010.1 |
| 20260509204143 | 89 | 107 | 0.9 | 1.7 | 0.00 | 0.01 | 0.01 | 56 | 1010.0 |
| 20260509203638 | 89 | 22 | 5.2 | 7.0 | 0.00 | 0.01 | 0.01 | 54 | 1010.0 |
| 20260509203132 | 87 | 288 | 4.3 | 7.0 | 0.00 | 0.01 | 0.01 | 54 | 1010.0 |
| 20260509202631 | 87 | 162 | 1.7 | 5.2 | 0.00 | 0.01 | 0.01 | 49 | 1010.3 |
| 20260509202127 | 86 | 334 | 3.5 | 6.1 | 0.00 | 0.01 | 0.01 | 51 | 1010.3 |
| 20260509201622 | 86 | 94 | 5.2 | 7.8 | 0.00 | 0.01 | 0.01 | 52 | 1010.8 |
| 20260509201120 | 89 | 114 | 8.7 | 12.2 | 0.00 | 0.01 | 0.01 | 55 | 1011.0 |
| 20260509200615 | 89 | 69 | 2.6 | 2.6 | 0.00 | 0.01 | 0.01 | 57 | 1010.7 |
| 20260509200111 | 87 | 315 | 1.7 | 2.6 | 0.00 | 0.01 | 0.01 | 62 | 1010.7 |
| 20260509195607 | 87 | 79 | 5.2 | 8.7 | 0.00 | 0.01 | 0.01 | 62 | 1010.6 |
| 20260509195102 | 87 | 7 | 3.5 | 5.2 | 0.00 | 0.01 | 0.01 | 61 | 1010.6 |
| 20260509194601 | 88 | 22 | 2.6 | 2.6 | 0.00 | 0.01 | 0.01 | 60 | 1010.4 |
| 20260509194059 | 89 | 301 | 0.9 | 0.9 | 0.00 | 0.01 | 0.01 | 55 | 1010.5 |
| 20260509193554 | 90 | 304 | 0.9 | 0.9 | 0.00 | 0.01 | 0.01 | 53 | 1010.4 |
| 20260509193051 | 89 | 299 | 0.9 | 0.9 | 0.00 | 0.01 | 0.01 | 55 | 1010.5 |
| 20260509192548 | 89 | 334 | 0.9 | 0.9 | 0.00 | 0.01 | 0.01 | 56 | 1010.6 |
| 20260509192042 | 88 | 314 | 0.9 | 0.9 | 0.00 | 0.01 | 0.01 | 58 | 1010.6 |
| 20260509191537 | 88 | 316 | 0.9 | 0.9 | 0.00 | 0.01 | 0.01 | 56 | 1010.8 |
| 20260509191033 | 88 | 27 | 3.5 | 5.2 | 0.00 | 0.01 | 0.01 | 58 | 1010.8 |
| 20260509190530 | 87 | 316 | 0.9 | 1.7 | 0.00 | 0.01 | 0.01 | 59 | 1010.8 |
| 20260509190029 | 88 | 309 | 0.0 | 0.9 | 0.00 | 0.01 | 0.01 | 56 | 1010.7 |
| 20260509185526 | 86 | 327 | 0.9 | 1.7 | 0.00 | 0.01 | 0.01 | 59 | 1011.1 |
| 20260509185021 | 85 | 302 | 4.3 | 6.1 | 0.00 | 0.01 | 0.01 | 62 | 1011.0 |
| 20260509184520 | 85 | 273 | 2.6 | 4.3 | 0.00 | 0.01 | 0.01 | 61 | 1011.2 |
| 20260509184016 | 86 | 297 | 0.9 | 0.9 | 0.00 | 0.01 | 0.01 | 61 | 1011.2 |
| 20260509183511 | 86 | 305 | 0.9 | 0.9 | 0.00 | 0.01 | 0.01 | 61 | 1011.2 |
| 20260509183007 | 86 | 312 | 1.7 | 1.7 | 0.00 | 0.01 | 0.01 | 62 | 1011.2 |
| 20260509182504 | 85 | 303 | 0.9 | 0.9 | 0.00 | 0.01 | 0.01 | 65 | 1011.6 |
| 20260509182001 | 84 | 309 | 2.6 | 4.3 | 0.00 | 0.01 | 0.01 | 63 | 1011.5 |
| 20260509181459 | 84 | 304 | 1.7 | 1.7 | 0.00 | 0.01 | 0.01 | 65 | 1011.5 |
| 20260509180956 | 84 | 297 | 0.9 | 0.9 | 0.00 | 0.01 | 0.01 | 65 | 1011.4 |
| 20260509180451 | 84 | 319 | 2.6 | 4.3 | 0.00 | 0.01 | 0.01 | 65 | 1011.8 |
| 20260509175949 | 84 | 299 | 2.6 | 2.6 | 0.00 | 0.01 | 0.01 | 66 | 1012.0 |
| 20260509175445 | 84 | 228 | 3.5 | 4.3 | 0.00 | 0.01 | 0.01 | 68 | 1011.7 |
| 20260509174942 | 83 | 279 | 1.7 | 1.7 | 0.00 | 0.01 | 0.01 | 70 | 1011.6 |
| 20260509174438 | 82 | 299 | 1.7 | 2.6 | 0.00 | 0.01 | 0.01 | 71 | 1011.6 |
| 20260509173933 | 81 | 305 | 1.7 | 2.6 | 0.00 | 0.01 | 0.01 | 71 | 1011.7 |
| 20260509173432 | 81 | 281 | 2.6 | 2.6 | 0.00 | 0.01 | 0.01 | 69 | 1012.0 |
| 20260509172929 | 81 | 279 | 1.7 | 2.6 | 0.00 | 0.01 | 0.01 | 70 | 1012.0 |
| 20260509172426 | 82 | 285 | 1.7 | 2.6 | 0.00 | 0.01 | 0.01 | 71 | 1012.2 |
| 20260509171922 | 83 | 248 | 2.6 | 2.6 | 0.00 | 0.01 | 0.01 | 69 | 1012.4 |
| 20260509171419 | 82 | 282 | 4.3 | 5.2 | 0.00 | 0.01 | 0.01 | 73 | 1012.2 |
| 20260509170915 | 82 | 244 | 1.7 | 2.6 | 0.00 | 0.01 | 0.01 | 73 | 1012.3 |
| 20260509170411 | 81 | 268 | 2.6 | 2.6 | 0.00 | 0.01 | 0.01 | 75 | 1012.3 |
| 20260509165907 | 81 | 213 | 6.1 | 7.0 | 0.00 | 0.01 | 0.01 | 76 | 1012.4 |
| 20260509165401 | 81 | 251 | 2.6 | 4.3 | 0.00 | 0.01 | 0.01 | 78 | 1012.0 |
| 20260509164857 | 79 | 232 | 2.6 | 4.3 | 0.00 | 0.01 | 0.01 | 80 | 1012.5 |
| 20260509164353 | 80 | 226 | 5.2 | 5.2 | 0.00 | 0.01 | 0.01 | 79 | 1012.5 |
| 20260509163849 | 79 | 302 | 4.3 | 6.1 | 0.00 | 0.01 | 0.01 | 82 | 1012.3 |
| 20260509163346 | 78 | 269 | 3.5 | 4.3 | 0.00 | 0.01 | 0.01 | 83 | 1012.5 |
| 20260509162845 | 77 | 240 | 8.7 | 11.3 | 0.00 | 0.01 | 0.01 | 84 | 1012.3 |
| 20260509162344 | 77 | 185 | 4.3 | 6.1 | 0.00 | 0.01 | 0.01 | 86 | 1012.4 |
| 20260509161840 | 77 | 249 | 3.5 | 4.3 | 0.00 | 0.01 | 0.01 | 86 | 1012.4 |
| 20260509161336 | 76 | 149 | 3.5 | 5.2 | 0.00 | 0.01 | 0.01 | 88 | 1012.2 |
| 20260509160832 | 76 | 227 | 9.6 | 11.3 | 0.00 | 0.01 | 0.01 | 88 | 1012.1 |
| 20260509160328 | 75 | 214 | 7.8 | 8.7 | 0.00 | 0.01 | 0.01 | 89 | 1012.4 |
| 20260509155823 | 75 | 218 | 6.1 | 7.0 | 0.00 | 0.01 | 0.01 | 91 | 1012.2 |
| 20260509155320 | 75 | 205 | 5.2 | 6.1 | 0.00 | 0.01 | 0.01 | 90 | 1012.5 |
| 20260509154816 | 75 | 226 | 6.1 | 7.0 | 0.00 | 0.01 | 0.01 | 90 | 1012.2 |
| 20260509154313 | 75 | 241 | 6.1 | 8.7 | 0.00 | 0.01 | 0.01 | 90 | 1012.4 |
| 20260509153810 | 75 | 210 | 6.1 | 7.0 | 0.00 | 0.01 | 0.01 | 89 | 1012.3 |
| 20260509153306 | 76 | 212 | 10.4 | 12.2 | 0.00 | 0.01 | 0.01 | 88 | 1012.3 |
| 20260509152803 | 76 | 241 | 3.5 | 4.3 | 0.00 | 0.01 | 0.01 | 90 | 1012.0 |
| 20260509152259 | 76 | 205 | 3.5 | 5.2 | 0.00 | 0.01 | 0.01 | 89 | 1011.9 |
| 20260509151756 | 77 | 239 | 7.8 | 8.7 | 0.00 | 0.01 | 0.01 | 88 | 1012.1 |
| 20260509151253 | 77 | 232 | 3.5 | 5.2 | 0.00 | 0.01 | 0.01 | 87 | 1011.8 |
| 20260509150752 | 78 | 287 | 5.2 | 7.0 | 0.00 | 0.01 | 0.01 | 86 | 1011.6 |
| 20260509150249 | 78 | 278 | 5.2 | 7.0 | 0.00 | 0.01 | 0.01 | 85 | 1011.7 |
| 20260509145746 | 77 | 272 | 3.5 | 4.3 | 0.00 | 0.01 | 0.01 | 85 | 1011.5 |
| 20260509145245 | 78 | 281 | 2.6 | 4.3 | 0.00 | 0.01 | 0.01 | 86 | 1011.5 |
| 20260509144742 | 77 | 256 | 4.3 | 5.2 | 0.00 | 0.01 | 0.01 | 86 | 1011.7 |
| 20260509144239 | 77 | 215 | 3.5 | 5.2 | 0.00 | 0.01 | 0.01 | 87 | 1011.9 |
| 20260509143736 | 77 | 282 | 2.6 | 2.6 | 0.00 | 0.01 | 0.01 | 87 | 1011.7 |
| 20260509143234 | 77 | 271 | 2.6 | 2.6 | 0.00 | 0.01 | 0.01 | 88 | 1011.6 |
| 20260509142729 | 76 | 297 | 2.6 | 2.6 | 0.00 | 0.01 | 0.01 | 88 | 1011.4 |
| 20260509142226 | 76 | 205 | 3.5 | 4.3 | 0.00 | 0.01 | 0.01 | 88 | 1011.5 |
| 20260509141722 | 76 | 251 | 2.6 | 2.6 | 0.00 | 0.01 | 0.01 | 89 | 1011.5 |
| 20260509141219 | 75 | 268 | 0.9 | 1.7 | 0.00 | 0.01 | 0.01 | 91 | 1011.4 |
| 20260509140715 | 74 | 241 | 2.6 | 2.6 | 0.00 | 0.01 | 0.01 | 92 | 1011.3 |
| 20260509140213 | 74 | 249 | 4.3 | 6.1 | 0.00 | 0.01 | 0.01 | 92 | 1011.0 |
| 20260509135710 | 74 | 217 | 4.3 | 5.2 | 0.00 | 0.01 | 0.01 | 92 | 1010.8 |
| 20260509135208 | 74 | 241 | 3.5 | 4.3 | 0.00 | 0.01 | 0.01 | 93 | 1010.9 |
| 20260509134704 | 73 | 222 | 6.1 | 7.0 | 0.00 | 0.01 | 0.01 | 93 | 1011.1 |
| 20260509134202 | 73 | 210 | 7.8 | 8.7 | 0.00 | 0.01 | 0.01 | 94 | 1010.9 |
| 20260509133659 | 72 | 248 | 4.3 | 5.2 | 0.00 | 0.01 | 0.01 | 95 | 1010.9 |
| 20260509133156 | 72 | 229 | 2.6 | 2.6 | 0.00 | 0.01 | 0.01 | 96 | 1011.0 |
| 20260509132654 | 72 | 240 | 5.2 | 6.1 | 0.00 | 0.01 | 0.01 | 96 | 1011.2 |
| 20260509132153 | 71 | 241 | 3.5 | 5.2 | 0.00 | 0.01 | 0.01 | 97 | 1011.1 |
| 20260509131648 | 71 | 231 | 8.7 | 8.7 | 0.00 | 0.01 | 0.01 | 97 | 1011.1 |
| 20260509131145 | 71 | 231 | 4.3 | 5.2 | 0.00 | 0.01 | 0.01 | 97 | 1011.3 |
| 20260509130641 | 71 | 225 | 4.3 | 5.2 | 0.00 | 0.01 | 0.01 | 97 | 1010.8 |
| 20260509130138 | 71 | 199 | 7.0 | 7.8 | 0.00 | 0.01 | 0.01 | 97 | 1011.0 |
| 20260509125634 | 71 | 224 | 4.3 | 5.2 | 0.00 | 0.01 | 0.01 | 97 | 1011.3 |
| 20260509125131 | 71 | 281 | 1.7 | 1.7 | 0.00 | 0.01 | 0.01 | 97 | 1011.3 |
| 20260509124627 | 71 | 296 | 0.9 | 0.9 | 0.00 | 0.01 | 0.01 | 97 | 1011.6 |
| 20260509124125 | 71 | 280 | 0.9 | 1.7 | 0.00 | 0.01 | 0.01 | 97 | 1011.5 |
| 20260509123623 | 71 | 316 | 0.9 | 0.9 | 0.00 | 0.01 | 0.01 | 97 | 1011.5 |
| 20260509123119 | 70 | 303 | 0.0 | 0.9 | 0.00 | 0.01 | 0.01 | 97 | 1011.6 |
| 20260509122615 | 70 | 318 | 1.7 | 1.7 | 0.00 | 0.01 | 0.01 | 97 | 1011.5 |
| 20260509122113 | 70 | 326 | 2.6 | 2.6 | 0.00 | 0.01 | 0.01 | 97 | 1011.5 |
| 20260509121609 | 70 | 325 | 0.0 | 0.0 | 0.00 | 0.01 | 0.01 | 97 | 1011.3 |
| 20260509121107 | 70 | 324 | 0.0 | 0.0 | 0.00 | 0.01 | 0.01 | 97 | 1011.5 |
| 20260509120604 | 70 | 322 | 0.0 | 0.0 | 0.00 | 0.01 | 0.01 | 97 | 1011.5 |
| 20260509115559 | 70 | 36 | 0.9 | 1.7 | 0.00 | 0.01 | 0.01 | 97 | 1011.8 |
| 20260509115057 | 70 | 346 | 0.0 | 0.0 | 0.00 | 0.01 | 0.01 | 97 | 1011.7 |
| 20260509114555 | 70 | 36 | 2.6 | 2.6 | 0.00 | 0.01 | 0.01 | 97 | 1012.0 |
| 20260509114054 | 70 | 317 | 0.0 | 0.0 | 0.00 | 0.01 | 0.01 | 97 | 1011.9 |
| 20260509113551 | 70 | 27 | 1.7 | 1.7 | 0.00 | 0.01 | 0.01 | 97 | 1011.9 |
| 20260509113049 | 70 | 292 | 0.9 | 1.7 | 0.00 | 0.01 | 0.01 | 97 | 1012.1 |
| 20260509112545 | 70 | 286 | 0.9 | 1.7 | 0.00 | 0.01 | 0.01 | 97 | 1012.1 |
| 20260509112042 | 70 | 302 | 0.9 | 0.9 | 0.00 | 0.01 | 0.01 | 97 | 1012.1 |
| 20260509111539 | 70 | 324 | 0.0 | 0.0 | 0.00 | 0.01 | 0.01 | 97 | 1012.2 |
| 20260509111036 | 70 | 14 | 0.0 | 0.9 | 0.00 | 0.01 | 0.01 | 97 | 1012.5 |
| 20260509110533 | 70 | 325 | 0.0 | 0.0 | 0.00 | 0.01 | 0.01 | 97 | 1012.7 |
| 20260509110030 | 70 | 335 | 0.9 | 0.9 | 0.00 | 0.01 | 0.01 | 97 | 1013.0 |
| 20260509105529 | 70 | 30 | 1.7 | 4.3 | 0.00 | 0.01 | 0.01 | 97 | 1012.6 |
| 20260509105026 | 70 | 30 | 0.9 | 0.9 | 0.00 | 0.01 | 0.01 | 96 | 1012.4 |
| 20260509104523 | 71 | 38 | 1.7 | 4.3 | 0.00 | 0.01 | 0.01 | 96 | 1012.4 |
| 20260509104020 | 71 | 14 | 2.6 | 2.6 | 0.00 | 0.01 | 0.01 | 96 | 1012.9 |
| 20260509103517 | 71 | 337 | 0.9 | 0.9 | 0.07 | 0.01 | 0.01 | 96 | 1012.7 |
| 20260509103015 | 71 | 332 | 2.6 | 2.6 | 0.07 | 0.01 | 0.01 | 96 | 1012.9 |
| 20260509102512 | 71 | 34 | 0.9 | 2.6 | 0.00 | 0.00 | 0.00 | 96 | 1012.9 |
| 20260509102009 | 71 | 323 | 0.9 | 0.9 | 0.00 | 0.00 | 0.00 | 96 | 1012.9 |
| 20260509101505 | 71 | 9 | 1.7 | 2.6 | 0.00 | 0.00 | 0.00 | 96 | 1012.5 |
| 20260509101002 | 71 | 332 | 0.0 | 0.0 | 0.00 | 0.00 | 0.00 | 96 | 1012.4 |
| 20260509100459 | 71 | 342 | 0.9 | 0.9 | 0.00 | 0.00 | 0.00 | 96 | 1012.2 |
| 20260509095956 | 71 | 339 | 0.9 | 0.9 | 0.00 | 0.00 | 0.00 | 96 | 1012.0 |
| 20260509095453 | 71 | 46 | 1.7 | 2.6 | 0.00 | 0.00 | 0.00 | 96 | 1011.9 |
| 20260509094950 | 71 | 22 | 1.7 | 1.7 | 0.00 | 0.00 | 0.00 | 96 | 1011.9 |
| 20260509094447 | 71 | 16 | 0.9 | 0.9 | 0.00 | 0.00 | 0.00 | 96 | 1011.5 |
| 20260509093944 | 71 | 0 | 0.9 | 0.9 | 0.00 | 0.00 | 0.00 | 96 | 1011.3 |
| 20260509093442 | 71 | 356 | 0.9 | 1.7 | 0.00 | 0.00 | 0.00 | 96 | 1011.2 |
| 20260509092939 | 71 | 28 | 1.7 | 1.7 | 0.00 | 0.00 | 0.00 | 96 | 1011.0 |
| 20260509092437 | 71 | 343 | 0.0 | 0.9 | 0.00 | 0.00 | 0.00 | 96 | 1011.3 |
| 20260509091936 | 71 | 346 | 0.9 | 0.9 | 0.00 | 0.00 | 0.00 | 96 | 1011.1 |
| 20260509091432 | 71 | 16 | 1.7 | 1.7 | 0.00 | 0.00 | 0.00 | 96 | 1010.9 |
| 20260509090929 | 71 | 19 | 1.7 | 1.7 | 0.00 | 0.00 | 0.00 | 96 | 1010.9 |
| 20260509090426 | 71 | 346 | 0.9 | 0.9 | 0.00 | 0.00 | 0.00 | 96 | 1011.1 |
| 20260509085924 | 71 | 25 | 1.7 | 2.6 | 0.00 | 0.00 | 0.00 | 96 | 1011.0 |
| 20260509085421 | 71 | 58 | 3.5 | 5.2 | 0.00 | 0.00 | 0.00 | 96 | 1011.1 |
| 20260509084917 | 71 | 68 | 2.6 | 2.6 | 0.00 | 0.00 | 0.00 | 95 | 1011.3 |
| 20260509084414 | 71 | 7 | 0.9 | 1.7 | 0.00 | 0.00 | 0.00 | 95 | 1011.3 |
| 20260509083912 | 71 | 11 | 0.9 | 1.7 | 0.00 | 0.00 | 0.00 | 95 | 1011.2 |
| 20260509083409 | 71 | 353 | 0.0 | 0.0 | 0.00 | 0.00 | 0.00 | 95 | 1011.2 |
| 20260509082905 | 71 | 330 | 0.0 | 0.0 | 0.00 | 0.00 | 0.00 | 95 | 1011.6 |
| 20260509082402 | 71 | 325 | 0.0 | 0.0 | 0.00 | 0.00 | 0.00 | 95 | 1011.6 |
| 20260509081859 | 71 | 0 | 1.7 | 1.7 | 0.00 | 0.00 | 0.00 | 95 | 1011.7 |
| 20260509081356 | 71 | 358 | 0.9 | 0.9 | 0.00 | 0.00 | 0.00 | 95 | 1011.6 |
| 20260509080854 | 71 | 11 | 0.9 | 1.7 | 0.00 | 0.00 | 0.00 | 95 | 1011.6 |
| 20260509080352 | 71 | 327 | 0.0 | 0.0 | 0.00 | 0.00 | 0.00 | 95 | 1011.8 |
| 20260509075850 | 71 | 331 | 0.0 | 0.0 | 0.00 | 0.00 | 0.00 | 95 | 1011.6 |
| 20260509075346 | 71 | 73 | 2.6 | 2.6 | 0.00 | 0.00 | 0.00 | 95 | 1011.7 |
| 20260509074844 | 71 | 9 | 0.9 | 0.9 | 0.00 | 0.00 | 0.00 | 95 | 1011.7 |
| 20260509074342 | 71 | 328 | 0.0 | 0.0 | 0.00 | 0.00 | 0.00 | 95 | 1011.6 |
| 20260509073837 | 71 | 7 | 0.9 | 0.9 | 0.00 | 0.00 | 0.00 | 95 | 1011.4 |
| 20260509073334 | 71 | 343 | 0.0 | 0.0 | 0.00 | 0.00 | 0.00 | 95 | 1011.6 |
| 20260509072831 | 71 | 325 | 0.0 | 0.0 | 0.00 | 0.00 | 0.00 | 95 | 1011.7 |
| 20260509072327 | 71 | 325 | 0.0 | 0.0 | 0.00 | 0.00 | 0.00 | 95 | 1011.7 |
| 20260509071824 | 71 | 325 | 0.0 | 0.0 | 0.00 | 0.00 | 0.00 | 95 | 1011.8 |
| 20260509071321 | 71 | 352 | 0.0 | 0.0 | 0.00 | 0.00 | 0.00 | 95 | 1011.8 |
| 20260509070818 | 72 | 311 | 0.0 | 0.0 | 0.00 | 0.00 | 0.00 | 95 | 1012.3 |
| 20260509070315 | 72 | 311 | 0.0 | 0.0 | 0.00 | 0.00 | 0.00 | 95 | 1012.1 |
| 20260509065811 | 71 | 312 | 0.0 | 0.0 | 0.00 | 0.00 | 0.00 | 95 | 1012.2 |
| 20260509065307 | 72 | 312 | 0.0 | 0.0 | 0.00 | 0.00 | 0.00 | 95 | 1011.9 |
| 20260509064803 | 72 | 312 | 0.0 | 0.0 | 0.00 | 0.00 | 0.00 | 95 | 1011.9 |
| 20260509064301 | 71 | 317 | 0.0 | 0.0 | 0.00 | 0.00 | 0.00 | 95 | 1012.0 |
| 20260509063759 | 71 | 315 | 0.0 | 0.0 | 0.00 | 0.00 | 0.00 | 95 | 1011.8 |
| 20260509063254 | 71 | 306 | 0.0 | 0.0 | 0.00 | 0.00 | 0.00 | 95 | 1011.9 |
| 20260509062752 | 71 | 258 | 0.9 | 1.7 | 0.00 | 0.00 | 0.00 | 95 | 1011.9 |
| 20260509062249 | 71 | 302 | 0.0 | 0.0 | 0.00 | 0.00 | 0.00 | 95 | 1012.0 |
| 20260509061746 | 71 | 308 | 0.9 | 0.9 | 0.00 | 0.00 | 0.00 | 95 | 1011.8 |
| 20260509061244 | 71 | 303 | 0.9 | 0.9 | 0.00 | 0.00 | 0.00 | 95 | 1011.9 |
| 20260509060741 | 71 | 306 | 0.9 | 1.7 | 0.00 | 0.00 | 0.00 | 95 | 1011.4 |
| 20260509060237 | 71 | 176 | 3.5 | 4.3 | 0.00 | 0.00 | 0.00 | 95 | 1011.2 |
| 20260509055733 | 71 | 166 | 2.6 | 4.3 | 0.00 | 0.00 | 0.00 | 95 | 1011.4 |
| 20260509055229 | 71 | 218 | 5.2 | 6.1 | 0.00 | 0.00 | 0.00 | 95 | 1011.3 |
| 20260509054726 | 71 | 214 | 3.5 | 4.3 | 0.00 | 0.00 | 0.00 | 95 | 1011.3 |
| 20260509054223 | 71 | 227 | 3.5 | 5.2 | 0.00 | 0.00 | 0.00 | 95 | 1011.5 |
| 20260509053721 | 71 | 259 | 4.3 | 5.2 | 0.00 | 0.00 | 0.00 | 95 | 1011.3 |
| 20260509053218 | 71 | 254 | 2.6 | 4.3 | 0.00 | 0.00 | 0.00 | 95 | 1010.8 |
| 20260509052716 | 71 | 212 | 5.2 | 6.1 | 0.00 | 0.00 | 0.00 | 95 | 1010.5 |
| 20260509052213 | 71 | 187 | 2.6 | 2.6 | 0.00 | 0.00 | 0.00 | 94 | 1010.5 |
| 20260509051711 | 71 | 226 | 6.1 | 7.0 | 0.00 | 0.00 | 0.00 | 94 | 1010.3 |
| 20260509051208 | 71 | 215 | 2.6 | 4.3 | 0.00 | 0.00 | 0.00 | 94 | 1010.4 |
| 20260509050705 | 71 | 186 | 3.5 | 4.3 | 0.00 | 0.00 | 0.00 | 94 | 1010.3 |
| 20260509050201 | 71 | 254 | 2.6 | 2.6 | 0.00 | 0.00 | 0.00 | 94 | 1010.4 |
| 20260509045659 | 71 | 259 | 1.7 | 1.7 | 0.00 | 0.00 | 0.00 | 94 | 1010.4 |
| 20260509045156 | 71 | 274 | 0.9 | 1.7 | 0.00 | 0.00 | 0.00 | 93 | 1010.4 |
| 20260509044653 | 71 | 151 | 2.6 | 2.6 | 0.00 | 0.00 | 0.00 | 93 | 1010.4 |
| 20260509044150 | 71 | 222 | 1.7 | 1.7 | 0.00 | 0.00 | 0.00 | 93 | 1010.6 |
| 20260509043647 | 71 | 263 | 1.7 | 1.7 | 0.00 | 0.00 | 0.00 | 93 | 1010.5 |
| 20260509043142 | 71 | 220 | 2.6 | 2.6 | 0.00 | 0.00 | 0.00 | 93 | 1010.8 |
| 20260509042639 | 72 | 257 | 2.6 | 2.6 | 0.00 | 0.00 | 0.00 | 93 | 1010.7 |
| 20260509042135 | 72 | 204 | 3.5 | 4.3 | 0.00 | 0.00 | 0.00 | 93 | 1010.9 |
| 20260509041632 | 72 | 230 | 2.6 | 2.6 | 0.00 | 0.00 | 0.00 | 92 | 1011.0 |
| 20260509041129 | 72 | 217 | 2.6 | 2.6 | 0.00 | 0.00 | 0.00 | 92 | 1011.0 |
| 20260509040628 | 72 | 250 | 2.6 | 2.6 | 0.00 | 0.00 | 0.00 | 92 | 1011.1 |
| 20260509040124 | 72 | 238 | 2.6 | 2.6 | 0.00 | 0.00 | 0.00 | 92 | 1011.2 |
| 20260509035621 | 72 | 229 | 1.7 | 1.7 | 0.00 | 0.00 | 0.00 | 92 | 1011.1 |
| 20260509035118 | 72 | 243 | 1.7 | 1.7 | 0.00 | 0.00 | 0.00 | 92 | 1011.0 |
| 20260509034616 | 72 | 217 | 2.6 | 2.6 | 0.00 | 0.00 | 0.00 | 92 | 1011.2 |
| 20260509034113 | 72 | 254 | 2.6 | 2.6 | 0.00 | 0.00 | 0.00 | 92 | 1011.0 |